Station Historical Data
Daily Summary for June 17, 2017 Units:  Metric    English   Both
« Previous Day
Next Day »
Daily Weekly Monthly Yearly Custom
  High: Low: Average:
Temperature: 32.5 °C 21.2 °C 26.8 °C
Dew Point: 20.3 °C 16.6 °C 18.4 °C
Humidity: 79% 42% 62%
Wind Speed: 16.1km/h 0km/h 4.5km/h
Wind Gust: 22.5km/h - -
Wind- - SSW
Pressure: 1009.7 hPa 1005 hPa -
Precipitation: 0 mm    
Historical Graphs
 
 
Tabular Data for June 17, 2017
Time Temperature Dew Point Pressure Wind Wind Speed Wind Gust Humidity Rainfall Rate (Hourly)
00:04 21.5 °C 16.7 °C 1009.7 hPa Calm   4.8 km/h 74% 0 mm
00:09 21.4 °C 16.6 °C 1009.7 hPa Calm   4.8 km/h 74% 0 mm
00:14 21.4 °C 16.6 °C 1009.7 hPa Calm     74% 0 mm
00:19 21.3 °C 16.7 °C 1009.7 hPa Calm     75% 0 mm
00:24 21.2 °C 16.8 °C 1009.4 hPa Calm     76% 0 mm
00:29 21.2 °C 16.8 °C 1009.4 hPa Calm     76% 0 mm
00:34 21.3 °C 16.9 °C 1009.4 hPa Calm   4.8 km/h 76% 0 mm
00:44 21.6 °C 16.9 °C 1009.7 hPa South 1.6 km/h 3.2 km/h 75% 0 mm
00:49 21.5 °C 16.9 °C 1009.4 hPa Calm   1.6 km/h 75% 0 mm
00:54 21.6 °C 16.9 °C 1009.4 hPa South 1.6 km/h 1.6 km/h 75% 0 mm
00:59 21.6 °C 16.9 °C 1009.4 hPa Calm   1.6 km/h 75% 0 mm
01:04 21.7 °C 16.8 °C 1009.4 hPa Calm     74% 0 mm
01:09 21.8 °C 16.9 °C 1009.4 hPa Calm     74% 0 mm
01:14 21.8 °C 17 °C 1009.4 hPa Calm   3.2 km/h 74% 0 mm
01:19 21.9 °C 17.1 °C 1009 hPa South 1.6 km/h 4.8 km/h 74% 0 mm
01:24 21.9 °C 17.1 °C 1009 hPa South 1.6 km/h 6.4 km/h 74% 0 mm
01:29 21.8 °C 17 °C 1009 hPa Calm   3.2 km/h 74% 0 mm
01:34 21.8 °C 17.2 °C 1009 hPa Calm   3.2 km/h 75% 0 mm
01:39 21.8 °C 17.2 °C 1009 hPa Calm   4.8 km/h 75% 0 mm
01:44 21.8 °C 17.2 °C 1009 hPa South 1.6 km/h 4.8 km/h 75% 0 mm
01:49 21.8 °C 17.3 °C 1009 hPa SSW 6.4 km/h 8 km/h 76% 0 mm
01:54 21.8 °C 17.4 °C 1009 hPa SSW 4.8 km/h 8 km/h 76% 0 mm
01:59 21.9 °C 17.4 °C 1008.7 hPa South 1.6 km/h 8 km/h 76% 0 mm
02:04 21.9 °C 17.4 °C 1008.7 hPa SSW 4.8 km/h 8 km/h 76% 0 mm
02:09 21.9 °C 17.4 °C 1008.7 hPa South 3.2 km/h 8 km/h 76% 0 mm
02:14 21.9 °C 17.4 °C 1008.7 hPa South 1.6 km/h 6.4 km/h 76% 0 mm
02:19 21.8 °C 17.6 °C 1008.7 hPa SSW 1.6 km/h 8 km/h 77% 0 mm
02:24 21.9 °C 17.7 °C 1008.4 hPa South 3.2 km/h 8 km/h 77% 0 mm
02:29 21.9 °C 17.7 °C 1008.4 hPa SSW 3.2 km/h 6.4 km/h 77% 0 mm
02:34 21.9 °C 17.7 °C 1008.7 hPa SSW 1.6 km/h 8 km/h 77% 0 mm
02:39 22 °C 17.8 °C 1008.4 hPa SSW 3.2 km/h 8 km/h 77% 0 mm
02:44 22.1 °C 17.9 °C 1008.7 hPa SSW 3.2 km/h 11.3 km/h 77% 0 mm
02:49 22.2 °C 17.9 °C 1008.7 hPa SSW 3.2 km/h 11.3 km/h 77% 0 mm
02:54 22.2 °C 18 °C 1008.7 hPa SSW 3.2 km/h 11.3 km/h 77% 0 mm
02:59 22.3 °C 18.1 °C 1008.7 hPa South 6.4 km/h 11.3 km/h 77% 0 mm
03:04 22.3 °C 18.1 °C 1008.4 hPa South 3.2 km/h 9.7 km/h 77% 0 mm
03:09 22.2 °C 18 °C 1008.4 hPa SSW 4.8 km/h 9.7 km/h 77% 0 mm
03:14 22.2 °C 18 °C 1008.4 hPa SSW 3.2 km/h 11.3 km/h 77% 0 mm
03:19 22.2 °C 18 °C 1008.4 hPa South 3.2 km/h 8 km/h 77% 0 mm
03:24 22.2 °C 17.9 °C 1008.4 hPa South 1.6 km/h 8 km/h 77% 0 mm
03:29 22.1 °C 17.8 °C 1008.4 hPa SW 3.2 km/h 9.7 km/h 77% 0 mm
03:34 22.1 °C 17.8 °C 1008.4 hPa SSW 3.2 km/h 9.7 km/h 77% 0 mm
03:39 22.1 °C 17.8 °C 1008.4 hPa SSW 4.8 km/h 9.7 km/h 77% 0 mm
03:44 22.1 °C 17.8 °C 1008.4 hPa SSW 4.8 km/h 9.7 km/h 77% 0 mm
03:49 22.1 °C 17.8 °C 1008.4 hPa SW 3.2 km/h 8 km/h 77% 0 mm
03:54 22.1 °C 17.9 °C 1008.4 hPa SSW 3.2 km/h 8 km/h 77% 0 mm
03:59 22.1 °C 17.8 °C 1008.4 hPa SSW 3.2 km/h 4.8 km/h 77% 0 mm
04:04 22.1 °C 17.8 °C 1008.4 hPa SSW 4.8 km/h 8 km/h 77% 0 mm
04:09 22.1 °C 17.9 °C 1008.4 hPa SSW 3.2 km/h 11.3 km/h 77% 0 mm
04:14 22.2 °C 17.9 °C 1008 hPa SSW 3.2 km/h 12.9 km/h 77% 0 mm
04:19 22.3 °C 17.8 °C 1008 hPa South 1.6 km/h 14.5 km/h 76% 0 mm
04:24 22.3 °C 17.8 °C 1008 hPa SSW 3.2 km/h 9.7 km/h 76% 0 mm
04:29 22.3 °C 17.8 °C 1008 hPa SSW 3.2 km/h 11.3 km/h 76% 0 mm
04:34 22.3 °C 17.8 °C 1008.4 hPa Calm   6.4 km/h 76% 0 mm
04:39 22.2 °C 18 °C 1008.4 hPa SW 3.2 km/h 8 km/h 77% 0 mm
04:44 22.2 °C 18 °C 1008.4 hPa SW 3.2 km/h 8 km/h 77% 0 mm
04:49 22.2 °C 17.9 °C 1008.4 hPa SW 1.6 km/h 8 km/h 77% 0 mm
04:54 22.2 °C 17.9 °C 1008 hPa Calm   4.8 km/h 77% 0 mm
04:59 22 °C 17.8 °C 1008 hPa Calm   4.8 km/h 77% 0 mm
05:04 21.9 °C 17.7 °C 1008 hPa Calm   4.8 km/h 77% 0 mm
05:09 21.9 °C 17.7 °C 1008.4 hPa South 3.2 km/h 8 km/h 77% 0 mm
05:14 21.8 °C 17.6 °C 1008.4 hPa South 3.2 km/h 8 km/h 77% 0 mm
05:19 21.8 °C 17.8 °C 1008.4 hPa South 3.2 km/h 8 km/h 78% 0 mm
05:24 21.7 °C 17.7 °C 1008.4 hPa SSW 1.6 km/h 8 km/h 78% 0 mm
05:29 21.7 °C 17.7 °C 1008.7 hPa South 1.6 km/h 4.8 km/h 78% 0 mm
05:34 21.7 °C 17.7 °C 1008.4 hPa South 3.2 km/h 4.8 km/h 78% 0 mm
05:39 21.7 °C 17.7 °C 1008.4 hPa Calm   4.8 km/h 78% 0 mm
05:44 21.7 °C 17.7 °C 1008.4 hPa Calm   8 km/h 78% 0 mm
05:49 21.7 °C 17.5 °C 1008.4 hPa Calm   8 km/h 77% 0 mm
05:54 21.7 °C 17.7 °C 1008.4 hPa Calm   4.8 km/h 78% 0 mm
05:59 21.8 °C 17.6 °C 1008.4 hPa SSE 1.6 km/h 6.4 km/h 77% 0 mm
06:04 21.8 °C 17.6 °C 1008.4 hPa SSE 1.6 km/h 4.8 km/h 77% 0 mm
06:09 21.8 °C 17.6 °C 1008.7 hPa SSE 3.2 km/h 6.4 km/h 77% 0 mm
06:14 21.7 °C 17.7 °C 1008.7 hPa SSE 3.2 km/h 6.4 km/h 78% 0 mm
06:19 21.6 °C 17.6 °C 1008.7 hPa SSE 3.2 km/h 8 km/h 78% 0 mm
06:24 21.6 °C 17.6 °C 1009 hPa SSE 3.2 km/h 8 km/h 78% 0 mm
06:29 21.5 °C 17.5 °C 1009 hPa South 1.6 km/h 6.4 km/h 78% 0 mm
06:34 21.4 °C 17.4 °C 1009 hPa South 1.6 km/h 4.8 km/h 78% 0 mm
06:39 21.4 °C 17.6 °C 1008.7 hPa Calm     79% 0 mm
06:44 21.4 °C 17.6 °C 1008.4 hPa Calm     79% 0 mm
06:49 21.4 °C 17.7 °C 1008.7 hPa SSE 1.6 km/h 8 km/h 79% 0 mm
06:54 21.5 °C 17.7 °C 1008.7 hPa Calm   4.8 km/h 79% 0 mm
06:59 21.6 °C 17.8 °C 1008.7 hPa Calm   6.4 km/h 79% 0 mm
07:04 21.7 °C 17.9 °C 1008.7 hPa Calm     79% 0 mm
07:09 21.9 °C 17.7 °C 1008.7 hPa South 3.2 km/h 8 km/h 77% 0 mm
07:14 21.9 °C 17.7 °C 1008.7 hPa SSE 1.6 km/h 9.7 km/h 77% 0 mm
07:19 22.1 °C 17.8 °C 1008.7 hPa SSE 3.2 km/h 9.7 km/h 77% 0 mm
07:24 22.3 °C 18.1 °C 1008.7 hPa South 3.2 km/h 8 km/h 77% 0 mm
07:29 22.6 °C 18.1 °C 1009 hPa South 4.8 km/h 9.7 km/h 76% 0 mm
07:34 22.8 °C 18.2 °C 1009 hPa SSE 3.2 km/h 11.3 km/h 75% 0 mm
07:39 23.1 °C 18.2 °C 1009 hPa South 3.2 km/h 11.3 km/h 74% 0 mm
07:44 23.2 °C 18.1 °C 1009 hPa SSW 4.8 km/h 12.9 km/h 73% 0 mm
07:49 23.4 °C 18.1 °C 1009 hPa SSW 6.4 km/h 12.9 km/h 72% 0 mm
07:54 23.4 °C 18.1 °C 1009 hPa South 6.4 km/h 14.5 km/h 72% 0 mm
07:59 23.3 °C 18 °C 1009 hPa South 6.4 km/h 14.5 km/h 72% 0 mm
08:04 23.3 °C 18.2 °C 1008.7 hPa South 4.8 km/h 14.5 km/h 73% 0 mm
08:09 23.8 °C 18.2 °C 1008.7 hPa SW 3.2 km/h 12.9 km/h 71% 0 mm
08:14 24.2 °C 18.3 °C 1008.7 hPa South 6.4 km/h 14.5 km/h 70% 0 mm
08:19 24.4 °C 18.3 °C 1008.7 hPa South 3.2 km/h 11.3 km/h 69% 0 mm
08:24 24.6 °C 18.5 °C 1009 hPa SSW 8 km/h 12.9 km/h 69% 0 mm
08:29 24.7 °C 18.9 °C 1008.7 hPa South 4.8 km/h 14.5 km/h 70% 0 mm
08:34 25 °C 18.4 °C 1008.7 hPa South 6.4 km/h 11.3 km/h 67% 0 mm
08:39 25.3 °C 18.9 °C 1008.7 hPa South 3.2 km/h 11.3 km/h 68% 0 mm
08:44 25.3 °C 18.5 °C 1008.7 hPa South 4.8 km/h 12.9 km/h 66% 0 mm
08:49 25.2 °C 18.7 °C 1008.7 hPa South 4.8 km/h 14.5 km/h 67% 0 mm
08:54 25.6 °C 19 °C 1008.7 hPa South 4.8 km/h 14.5 km/h 67% 0 mm
08:59 25.7 °C 18.8 °C 1008.7 hPa South 6.4 km/h 14.5 km/h 66% 0 mm
09:04 26.1 °C 19.4 °C 1008.7 hPa South 6.4 km/h 17.7 km/h 67% 0 mm
09:09 26.4 °C 18.8 °C 1008.4 hPa WSW 3.2 km/h 14.5 km/h 63% 0 mm
09:14 26.4 °C 19.3 °C 1008.4 hPa SSW 6.4 km/h 11.3 km/h 65% 0 mm
09:19 26.6 °C 19.2 °C 1008.4 hPa South 6.4 km/h 11.3 km/h 64% 0 mm
09:24 26.8 °C 19.2 °C 1008.7 hPa South 8 km/h 12.9 km/h 63% 0 mm
09:29 27.2 °C 19.6 °C 1008.4 hPa SSE 6.4 km/h 12.9 km/h 63% 0 mm
09:34 27.2 °C 19.3 °C 1008.7 hPa South 4.8 km/h 14.5 km/h 62% 0 mm
09:39 27 °C 19.1 °C 1008.7 hPa South 6.4 km/h 14.5 km/h 62% 0 mm
09:44 26.9 °C 19.1 °C 1008.7 hPa SSW 6.4 km/h 14.5 km/h 62% 0 mm
09:49 27.2 °C 19.3 °C 1008.7 hPa SSW 4.8 km/h 16.1 km/h 62% 0 mm
09:54 27.6 °C 19.6 °C 1008.4 hPa SSW 4.8 km/h 16.1 km/h 62% 0 mm
09:59 27.8 °C 19.3 °C 1008.4 hPa SSW 4.8 km/h 14.5 km/h 60% 0 mm
10:04 28 °C 20.1 °C 1008.4 hPa SSW 4.8 km/h 12.9 km/h 62% 0 mm
10:09 28.4 °C 19.1 °C 1008.4 hPa SSE 9.7 km/h 19.3 km/h 57% 0 mm
10:14 28.2 °C 18.9 °C 1008.4 hPa South 6.4 km/h 19.3 km/h 57% 0 mm
10:19 28.1 °C 19 °C 1008.4 hPa SSW 6.4 km/h 11.3 km/h 58% 0 mm
10:24 28.1 °C 19.1 °C 1008.4 hPa SSW 6.4 km/h 11.3 km/h 58% 0 mm
10:29 28.1 °C 19.1 °C 1008.4 hPa SSW 8 km/h 14.5 km/h 58% 0 mm
10:34 28.2 °C 18.8 °C 1008.4 hPa South 6.4 km/h 16.1 km/h 57% 0 mm
10:39 28.2 °C 18.6 °C 1008.4 hPa SSW 3.2 km/h 11.3 km/h 56% 0 mm
10:44 28.8 °C 19.1 °C 1008.4 hPa WSW 9.7 km/h 16.1 km/h 56% 0 mm
10:49 28.9 °C 19.5 °C 1008.4 hPa SW 6.4 km/h 16.1 km/h 57% 0 mm
10:54 28.9 °C 19 °C 1008.4 hPa SW 8 km/h 12.9 km/h 55% 0 mm
10:59 29.3 °C 19.3 °C 1008.4 hPa SW 8 km/h 16.1 km/h 55% 0 mm
11:04 29.2 °C 19.2 °C 1008.4 hPa SW 8 km/h 16.1 km/h 55% 0 mm
11:09 29.3 °C 19.1 °C 1008.4 hPa SSW 8 km/h 14.5 km/h 54% 0 mm
11:14 29.3 °C 19.1 °C 1008.4 hPa SSW 8 km/h 14.5 km/h 54% 0 mm
11:19 29.3 °C 18.4 °C 1008.4 hPa SSE 12.9 km/h 14.5 km/h 52% 0 mm
11:24 29.5 °C 18.3 °C 1008.4 hPa West 3.2 km/h 16.1 km/h 51% 0 mm
11:29 29.4 °C 17.9 °C 1008.4 hPa SW 6.4 km/h 22.5 km/h 50% 0 mm
11:34 29.7 °C 19.4 °C 1008.4 hPa SW 3.2 km/h 12.9 km/h 54% 0 mm
11:39 30.2 °C 18.3 °C 1008.4 hPa SW 4.8 km/h 12.9 km/h 49% 0 mm
11:44 30.4 °C 18.5 °C 1008 hPa SW 6.4 km/h 16.1 km/h 49% 0 mm
11:49 30.3 °C 18.4 °C 1008 hPa SW 8 km/h 16.1 km/h 49% 0 mm
11:54 29.9 °C 18.7 °C 1008 hPa SW 6.4 km/h 14.5 km/h 51% 0 mm
11:59 30.3 °C 17 °C 1008 hPa SW 3.2 km/h 14.5 km/h 45% 0 mm
12:04 30.7 °C 18.7 °C 1008 hPa SW 6.4 km/h 14.5 km/h 49% 0 mm
12:09 30.1 °C 17.5 °C 1008 hPa Calm   12.9 km/h 47% 0 mm
12:14 30.4 °C 16.8 °C 1008 hPa SW 6.4 km/h 16.1 km/h 44% 0 mm
12:19 30.3 °C 17.8 °C 1008 hPa SSW 6.4 km/h 17.7 km/h 47% 0 mm
12:24 30.3 °C 17.1 °C 1007.7 hPa SW 8 km/h 20.9 km/h 45% 0 mm
12:29 30.4 °C 17.4 °C 1007.7 hPa SW 8 km/h 20.9 km/h 46% 0 mm
12:34 30.5 °C 17.2 °C 1007.3 hPa SW 8 km/h 17.7 km/h 45% 0 mm
12:39 30.4 °C 17.1 °C 1007.3 hPa SW 12.9 km/h 12.9 km/h 45% 0 mm
12:44 30.5 °C 16.9 °C 1007.3 hPa SW 4.8 km/h 12.9 km/h 44% 0 mm
12:49 30.7 °C 19.1 °C 1007 hPa SE 4.8 km/h 12.9 km/h 50% 0 mm
12:54 30.7 °C 19.7 °C 1007 hPa SW 8 km/h 8 km/h 52% 0 mm
12:59 30.7 °C 18.4 °C 1007 hPa WSW 9.7 km/h 20.9 km/h 48% 0 mm
13:04 30.9 °C 18.7 °C 1007 hPa WSW 6.4 km/h 12.9 km/h 48% 0 mm
13:09 30.7 °C 18.7 °C 1007 hPa WSW 3.2 km/h 19.3 km/h 49% 0 mm
13:14 30.6 °C 18.3 °C 1006.7 hPa SW 6.4 km/h 19.3 km/h 48% 0 mm
13:19 30.7 °C 18.4 °C 1006.7 hPa SW 6.4 km/h 16.1 km/h 48% 0 mm
13:24 30.6 °C 17.9 °C 1006.7 hPa SW 6.4 km/h 17.7 km/h 47% 0 mm
13:29 30.5 °C 19.2 °C 1006.7 hPa SW 6.4 km/h 17.7 km/h 51% 0 mm
13:34 30.9 °C 18.3 °C 1006.7 hPa West 6.4 km/h 16.1 km/h 47% 0 mm
13:39 31.3 °C 20.3 °C 1006.7 hPa SSW 4.8 km/h 9.7 km/h 52% 0 mm
13:44 30.8 °C 18.8 °C 1006.7 hPa WSW 6.4 km/h 12.9 km/h 49% 0 mm
13:49 31.1 °C 19.1 °C 1006.7 hPa SW 6.4 km/h 14.5 km/h 49% 0 mm
13:54 30.8 °C 18.8 °C 1006.7 hPa SE 1.6 km/h 11.3 km/h 49% 0 mm
13:59 31.6 °C 18.2 °C 1006.7 hPa SE 4.8 km/h 11.3 km/h 45% 0 mm
14:04 31.6 °C 18.9 °C 1006.7 hPa SW 3.2 km/h 17.7 km/h 47% 0 mm
14:09 31.3 °C 19.6 °C 1006.7 hPa SSW 8 km/h 17.7 km/h 50% 0 mm
14:14 31.3 °C 18.9 °C 1006.3 hPa SSW 6.4 km/h 14.5 km/h 48% 0 mm
14:19 31.7 °C 19.7 °C 1006.7 hPa SSW 4.8 km/h 17.7 km/h 49% 0 mm
14:24 31.3 °C 19.3 °C 1006.7 hPa SSW 8 km/h 20.9 km/h 49% 0 mm
14:29 31.6 °C 19.3 °C 1006.7 hPa SW 4.8 km/h 11.3 km/h 48% 0 mm
14:34 32 °C 19.3 °C 1006.7 hPa SSE 3.2 km/h 17.7 km/h 47% 0 mm
14:39 31.9 °C 18.5 °C 1006.7 hPa SSW 12.9 km/h 16.1 km/h 45% 0 mm
14:44 31.6 °C 17.4 °C 1006.7 hPa SSW 9.7 km/h 19.3 km/h 43% 0 mm
14:49 31.9 °C 18.8 °C 1006.7 hPa SSW 8 km/h 19.3 km/h 46% 0 mm
14:54 32.1 °C 19 °C 1006.3 hPa SSW 9.7 km/h 14.5 km/h 46% 0 mm
14:59 32 °C 19.3 °C 1006.3 hPa South 11.3 km/h 17.7 km/h 47% 0 mm
15:04 32.3 °C 18.2 °C 1006.3 hPa SSW 11.3 km/h 16.1 km/h 43% 0 mm
15:09 32.2 °C 17.7 °C 1006.7 hPa South 8 km/h 16.1 km/h 42% 0 mm
15:14 32.2 °C 18.4 °C 1006.7 hPa SSW 9.7 km/h 17.7 km/h 44% 0 mm
15:19 32.3 °C 17.8 °C 1006.7 hPa SW 9.7 km/h 17.7 km/h 42% 0 mm
15:24 32.5 °C 18.7 °C 1006.3 hPa SW 16.1 km/h 16.1 km/h 44% 0 mm
15:29 32.1 °C 19 °C 1006.7 hPa SW 12.9 km/h 20.9 km/h 46% 0 mm
15:34 31.9 °C 19.2 °C 1006.3 hPa SSW 1.6 km/h 20.9 km/h 47% 0 mm
15:39 32.2 °C 19.5 °C 1006.7 hPa SW 8 km/h 20.9 km/h 47% 0 mm
15:44 32.2 °C 19.5 °C 1006.3 hPa WSW 8 km/h 16.1 km/h 47% 0 mm
15:49 32 °C 18.6 °C 1006.3 hPa WSW 9.7 km/h 17.7 km/h 45% 0 mm
15:54 31.9 °C 19.2 °C 1006 hPa WSW 9.7 km/h 17.7 km/h 47% 0 mm
15:59 31.6 °C 18.9 °C 1006 hPa SW 8 km/h 17.7 km/h 47% 0 mm
16:04 31.1 °C 17.8 °C 1006.3 hPa SSE 4.8 km/h 14.5 km/h 45% 0 mm
16:09 31.3 °C 18.7 °C 1006.3 hPa WSW 6.4 km/h 14.5 km/h 47% 0 mm
16:14 31.4 °C 18.7 °C 1006.3 hPa West 8 km/h 12.9 km/h 47% 0 mm
16:19 31.5 °C 18.1 °C 1006.3 hPa West 6.4 km/h 12.9 km/h 45% 0 mm
16:24 31.2 °C 18.5 °C 1006.3 hPa WSW 9.7 km/h 16.1 km/h 47% 0 mm
16:29 31.6 °C 18.6 °C 1006.3 hPa WSW 4.8 km/h 12.9 km/h 46% 0 mm
16:34 32.1 °C 19.3 °C 1006.3 hPa NW 6.4 km/h 12.9 km/h 47% 0 mm
16:39 31.8 °C 18.4 °C 1006.3 hPa WSW 8 km/h 12.9 km/h 45% 0 mm
16:44 31.4 °C 18.4 °C 1006.3 hPa SW 8 km/h 16.1 km/h 46% 0 mm
16:49 31.7 °C 18.3 °C 1006.3 hPa WSW 8 km/h 16.1 km/h 45% 0 mm
16:54 31.4 °C 18.8 °C 1006.3 hPa WSW 6.4 km/h 14.5 km/h 47% 0 mm
16:59 31.6 °C 18.6 °C 1006.3 hPa WSW 8 km/h 14.5 km/h 46% 0 mm
17:04 31.6 °C 19.2 °C 1006 hPa SSW 6.4 km/h 9.7 km/h 48% 0 mm
17:09 31.6 °C 18.9 °C 1006 hPa SSW 4.8 km/h 12.9 km/h 47% 0 mm
17:14 31.5 °C 19.5 °C 1006 hPa West 4.8 km/h 9.7 km/h 49% 0 mm
17:19 31.7 °C 19.4 °C 1006 hPa South 4.8 km/h 11.3 km/h 48% 0 mm
17:24 31.6 °C 18.9 °C 1006 hPa South 1.6 km/h 16.1 km/h 47% 0 mm
17:29 31.6 °C 18.6 °C 1006 hPa South 3.2 km/h 8 km/h 46% 0 mm
17:34 31.6 °C 19.2 °C 1006 hPa West 8 km/h 11.3 km/h 48% 0 mm
17:39 31.6 °C 18.6 °C 1006 hPa South 8 km/h 11.3 km/h 46% 0 mm
17:44 31.4 °C 18.8 °C 1005.6 hPa SSW 6.4 km/h 16.1 km/h 47% 0 mm
17:49 31.4 °C 19.1 °C 1005.6 hPa SW 4.8 km/h 16.1 km/h 48% 0 mm
17:54 31.2 °C 19.2 °C 1005.6 hPa SW 6.4 km/h 12.9 km/h 49% 0 mm
17:59 31.4 °C 19.7 °C 1005.6 hPa SSW 6.4 km/h 12.9 km/h 50% 0 mm
18:04 31.3 °C 19.3 °C 1005.6 hPa SW 6.4 km/h 12.9 km/h 49% 0 mm
18:09 30.9 °C 19.3 °C 1005.6 hPa SSE 3.2 km/h 12.9 km/h 50% 0 mm
18:14 30.8 °C 19.2 °C 1005.6 hPa SW 4.8 km/h 11.3 km/h 50% 0 mm
18:19 30.5 °C 18.9 °C 1005.6 hPa South 1.6 km/h 6.4 km/h 50% 0 mm
18:24 30.2 °C 19.3 °C 1005.6 hPa West 1.6 km/h 9.7 km/h 52% 0 mm
18:29 30.4 °C 19.2 °C 1005.6 hPa SW 9.7 km/h 9.7 km/h 51% 0 mm
18:34 30.3 °C 19 °C 1005.6 hPa SW 4.8 km/h 12.9 km/h 51% 0 mm
18:39 30.2 °C 18.9 °C 1005.6 hPa SW 4.8 km/h 12.9 km/h 51% 0 mm
18:44 30.1 °C 19.5 °C 1005.6 hPa SW 4.8 km/h 11.3 km/h 53% 0 mm
18:49 30.1 °C 19.1 °C 1005.6 hPa SW 6.4 km/h 11.3 km/h 52% 0 mm
18:54 29.9 °C 19 °C 1005.6 hPa SW 4.8 km/h 11.3 km/h 52% 0 mm
18:59 29.7 °C 19.4 °C 1005.6 hPa SW 4.8 km/h 8 km/h 54% 0 mm
19:04 29.6 °C 19.3 °C 1005.6 hPa SW 6.4 km/h 8 km/h 54% 0 mm
19:09 29.6 °C 19.3 °C 1005.6 hPa SW 4.8 km/h 8 km/h 54% 0 mm
19:14 29.6 °C 19.3 °C 1005.6 hPa SW 6.4 km/h 9.7 km/h 54% 0 mm
19:19 29.6 °C 19.6 °C 1005.3 hPa SW 3.2 km/h 8 km/h 55% 0 mm
19:24 29.6 °C 19.3 °C 1005.3 hPa SW 3.2 km/h 6.4 km/h 54% 0 mm
19:29 29.6 °C 19.3 °C 1005.3 hPa SSW 3.2 km/h 8 km/h 54% 0 mm
19:34 29.7 °C 19.4 °C 1005.3 hPa SW 3.2 km/h 4.8 km/h 54% 0 mm
19:39 29.6 °C 19.6 °C 1005.3 hPa SSW 3.2 km/h 6.4 km/h 55% 0 mm
19:44 29.5 °C 19.8 °C 1005.3 hPa SSW 3.2 km/h 8 km/h 56% 0 mm
19:49 29.4 °C 19.7 °C 1005.3 hPa SSW 3.2 km/h 9.7 km/h 56% 0 mm
19:54 29.3 °C 19.3 °C 1005.3 hPa SSW 3.2 km/h 9.7 km/h 55% 0 mm
19:59 29.2 °C 19.2 °C 1005.3 hPa SSW 3.2 km/h 11.3 km/h 55% 0 mm
20:04 29.1 °C 19.1 °C 1005 hPa South 9.7 km/h 12.9 km/h 55% 0 mm
20:09 29.1 °C 19.1 °C 1005 hPa SSW 6.4 km/h 12.9 km/h 55% 0 mm
20:14 28.9 °C 19 °C 1005 hPa SSW 3.2 km/h 9.7 km/h 55% 0 mm
20:19 28.8 °C 18.9 °C 1005 hPa South 1.6 km/h 9.7 km/h 55% 0 mm
20:24 28.8 °C 18.8 °C 1005 hPa SSE 8 km/h 14.5 km/h 55% 0 mm
20:29 28.7 °C 19 °C 1005 hPa SSW 4.8 km/h 8 km/h 56% 0 mm
20:34 28.5 °C 18.9 °C 1005 hPa SSW 1.6 km/h 8 km/h 56% 0 mm
20:39 28.4 °C 18.8 °C 1005 hPa SSW 3.2 km/h 8 km/h 56% 0 mm
20:44 28.3 °C 18.9 °C 1005.3 hPa SSW 3.2 km/h 11.3 km/h 57% 0 mm
20:49 28.2 °C 18.8 °C 1005.3 hPa South 4.8 km/h 11.3 km/h 57% 0 mm
20:54 28.1 °C 19.1 °C 1005.3 hPa South 3.2 km/h 11.3 km/h 58% 0 mm
20:59 28 °C 18.9 °C 1005.3 hPa South 1.6 km/h 11.3 km/h 58% 0 mm
21:04 28 °C 18.7 °C 1005.3 hPa SSW 3.2 km/h 6.4 km/h 57% 0 mm
21:09 27.9 °C 18.6 °C 1005.3 hPa SSW 3.2 km/h 9.7 km/h 57% 0 mm
21:14 27.8 °C 18.8 °C 1005.3 hPa SSW 8 km/h 9.7 km/h 58% 0 mm
21:19 27.7 °C 18.7 °C 1005.3 hPa SSW 4.8 km/h 11.3 km/h 58% 0 mm
21:24 27.6 °C 18.6 °C 1005.3 hPa SSW 3.2 km/h 8 km/h 58% 0 mm
21:29 27.5 °C 18.8 °C 1005.6 hPa SSW 4.8 km/h 9.7 km/h 59% 0 mm
21:34 27.4 °C 18.7 °C 1005.6 hPa SSW 4.8 km/h 9.7 km/h 59% 0 mm
21:39 27.4 °C 18.7 °C 1005.6 hPa SSW 3.2 km/h 9.7 km/h 59% 0 mm
21:44 27.3 °C 18.6 °C 1005.6 hPa SSW 3.2 km/h 9.7 km/h 59% 0 mm
21:49 27.1 °C 18.6 °C 1006 hPa South 4.8 km/h 6.4 km/h 60% 0 mm
21:54 26.9 °C 18.5 °C 1006 hPa South 1.6 km/h 8 km/h 60% 0 mm
21:59 26.9 °C 18.7 °C 1006 hPa SSW 3.2 km/h 8 km/h 61% 0 mm
22:04 26.8 °C 18.6 °C 1006 hPa SSW 1.6 km/h 11.3 km/h 61% 0 mm
22:09 26.6 °C 18.4 °C 1006 hPa South 3.2 km/h 11.3 km/h 61% 0 mm
22:14 26.6 °C 18.4 °C 1006 hPa South 3.2 km/h 9.7 km/h 61% 0 mm
22:19 26.5 °C 18.4 °C 1006.3 hPa SSW 3.2 km/h 6.4 km/h 61% 0 mm
22:24 26.5 °C 18.4 °C 1006.3 hPa SSW 3.2 km/h 8 km/h 61% 0 mm
22:29 26.5 °C 18.4 °C 1006.3 hPa South 3.2 km/h 8 km/h 61% 0 mm
22:34 26.4 °C 18.3 °C 1006.3 hPa South 9.7 km/h 11.3 km/h 61% 0 mm
22:39 26.4 °C 18.5 °C 1006 hPa South 4.8 km/h 11.3 km/h 62% 0 mm
22:44 26.2 °C 18.4 °C 1006 hPa South 4.8 km/h 11.3 km/h 62% 0 mm
22:49 26.2 °C 18.6 °C 1006 hPa South 3.2 km/h 8 km/h 63% 0 mm
22:54 26.1 °C 18.5 °C 1006 hPa South 4.8 km/h 9.7 km/h 63% 0 mm
22:59 26.1 °C 18.4 °C 1006 hPa SSE 4.8 km/h 11.3 km/h 63% 0 mm
23:04 26.1 °C 18.4 °C 1006 hPa SSW 3.2 km/h 8 km/h 63% 0 mm
23:09 26 °C 18.4 °C 1006 hPa South 3.2 km/h 8 km/h 63% 0 mm
23:14 26 °C 18.4 °C 1006 hPa South 4.8 km/h 9.7 km/h 63% 0 mm
23:19 25.9 °C 18.3 °C 1006 hPa South 4.8 km/h 9.7 km/h 63% 0 mm
23:24 25.9 °C 18.3 °C 1006 hPa South 3.2 km/h 9.7 km/h 63% 0 mm
23:29 25.8 °C 18.3 °C 1006 hPa South 3.2 km/h 9.7 km/h 63% 0 mm
23:34 25.7 °C 18.3 °C 1006 hPa South 3.2 km/h 4.8 km/h 64% 0 mm
23:39 25.6 °C 18.5 °C 1006 hPa South 1.6 km/h 6.4 km/h 65% 0 mm
23:44 25.6 °C 18.7 °C 1005.6 hPa South 6.4 km/h 9.7 km/h 66% 0 mm
23:49 25.7 °C 18.8 °C 1005.6 hPa West 1.6 km/h 11.3 km/h 66% 0 mm
23:54 25.7 °C 19.1 °C 1005.6 hPa SSE 4.8 km/h 14.5 km/h 67% 0 mm
23:59 25.8 °C 19.2 °C 1005.6 hPa SSW 6.4 km/h 14.5 km/h 67% 0 mm
Buffalo, New York, USA
Compliments of Weather Underground - 2.5 mb